sat.trackr.live / text

‹ back to catalog

STARLINK-30809

NORAD 58183 · 2023-167J

PAYLOAD ACTIVE UNKNOWN

§ Identity

Operator
Country
US
Launch date
2023-10-30
Launch site
AFETR
Launch vehicle
Mass (kg)
RCS (m²)

Purposes: comms

External: N2YO · Heavens-Above · Gunter

§ Orbital elements

Epoch: 2026-09-20T21:15:22.818528Z

Period
94.27 min
Inclination
43.0027°
Eccentricity
0.0001550
Mean motion
15.27576913 rev/d
Perigee alt
482.0 km
Apogee alt
484.1 km
Semi-major
6,861.2 km
B*
1.5025e-5
RAAN
121.3876°
Arg perigee
264.4976°
Mean anomaly
95.5699°
Rev number
16,083

§ Raw data

STARLINK-308091 58183U 23167J   26263.88568077  .00000151  00000+0  15025-4 0  99952 58183  43.0027 121.3876 0001550 264.4976  95.5699 15.27576913160837

JSON: /api/v1/satellites/58183 · /tle

For live sub-satellite position, see the globe view (requires WebGL).

§ Visibility from observer

Set your observer location to see the next 7 days of passes ≥ 10°. The values pass through the URL so the page stays shareable.

No JS? Fill the form by hand. The geolocation button needs JavaScript.